Rome Ciampino, Italy

2:11 AM CET on March 24, 2017 (GMT +0100)
Ciampino

Weather History for LIRA - December, 2013

Change the Weather History Date:

Sunday, December 22, 2013

  Actual Average Record
Temperature  
Mean Temperature 48 °F -  
Max Temperature 55 °F 54 °F 64 °F (1996)
Min Temperature 41 °F 38 °F 30 °F (2005)
Degree Days  
Heating Degree Days 17    
Moisture  
Dew Point 45 °F    
Average Humidity 93    
Maximum Humidity 100    
Minimum Humidity 78    
Precipitation  
Precipitation 0.00 in 0.14 in - ()
Sea Level Pressure  
Sea Level Pressure 30.48 in    
Wind  
Wind Speed 2 mph ()    
Max Wind Speed 5 mph    
Max Gust Speed -    
Visibility 4.5 miles    
Events      
Averages and records for this station are not official NWS values.
T = Trace of Precipitation, MM = Missing Value Source: Averaged Metar Reports

Daily Weather History Graph

Daily Weather History Graph

Search for Another Location

Airport or City:

Trip Planner

Search our weather history database for the weather conditions in past years. The results will help you decide how hot, cold, wet, or windy it might be!

Date:

Astronomy

Dec. 22, 2013 Rise Set
Actual Time 7:34 AM CET 4:42 PM CET
Civil Twilight 7:02 AM CET 5:14 PM CET
Nautical Twilight 6:27 AM CET 5:49 PM CET
Astronomical Twilight 5:53 AM CET 6:23 PM CET
Moon 9:43 PM CET (12/22) 10:18 AM CET (12/22)
Length of Visible Light 10h 11m
Length of Day
9h 08m
Waning Gibbous, 79% of the Moon is Illuminated
Dec 22
Waning Gibbous
Dec 25
Last Quarter
Jan 1
New
Jan 8
First Quarter
Jan 16
Full

Hourly Weather History & Observations

Time (CET) Temp. Windchill Dew Point Humidity Pressure Visibility Wind Dir Wind Speed Gust Speed Precip Events Conditions
12:15 AM 46.4 °F - 44.6 °F 93% 30.54 in 2.5 mi NE 2.3 mph - N/A   Partly Cloudy
12:45 AM 44.6 °F 43.1 °F 44.6 °F 100% 30.54 in 2.5 mi NE 3.5 mph - N/A   Scattered Clouds
1:00 AM 45 °F - 44 °F 96% 30.56 in 2 mi NE 3.5 mph - -   Mist
1:15 AM 46.4 °F 45.2 °F 44.6 °F 93% 30.54 in 2.5 mi East 3.5 mph - N/A   Scattered Clouds
1:45 AM 46.4 °F - 44.6 °F 93% 30.54 in 2.5 mi NNE 2.3 mph - N/A   Scattered Clouds
2:15 AM 46.4 °F - 44.6 °F 93% 30.54 in 2.5 mi NE 2.3 mph - N/A   Mostly Cloudy
2:45 AM 46.4 °F - 44.6 °F 93% 30.54 in 2.5 mi NE 1.2 mph - N/A   Mostly Cloudy
3:15 AM 46.4 °F - 44.6 °F 93% 30.54 in 2.5 mi Calm Calm - N/A   Mostly Cloudy
3:45 AM 44.6 °F - 44.6 °F 100% 30.51 in 2.5 mi NNE 2.3 mph - N/A   Mostly Cloudy
4:00 AM 45 °F - 45 °F 98% 30.55 in 2 mi NNE 2.3 mph - -   Mist
4:15 AM 44.6 °F - 44.6 °F 100% 30.51 in 3.1 mi Calm Calm - N/A   Scattered Clouds
4:45 AM 44.6 °F - 44.6 °F 100% 30.51 in 3.1 mi NE 2.3 mph - N/A   Scattered Clouds
5:15 AM 44.6 °F - 42.8 °F 93% 30.51 in 3.1 mi North 1.2 mph - N/A   Mostly Cloudy
5:45 AM 42.8 °F - 42.8 °F 100% 30.51 in 3.1 mi Calm Calm - N/A   Mostly Cloudy
6:15 AM 42.8 °F - 42.8 °F 100% 30.51 in 3.7 mi Calm Calm - N/A   Scattered Clouds
6:45 AM 42.8 °F - 42.8 °F 100% 30.51 in 4.3 mi NE 1.2 mph - N/A   Scattered Clouds
7:00 AM 43 °F - 42 °F 96% 30.53 in 4 mi NE 1.2 mph - -   Mist
7:15 AM 42.8 °F - 42.8 °F 100% 30.51 in 4.3 mi Calm Calm - N/A   Scattered Clouds
7:45 AM 42.8 °F - 42.8 °F 100% 30.51 in 4.3 mi NE 2.3 mph - N/A   Scattered Clouds
8:15 AM 42.8 °F - 42.8 °F 100% 30.51 in 5.0 mi NE 1.2 mph - N/A   Scattered Clouds
8:45 AM 42.8 °F - 42.8 °F 100% 30.51 in 5.0 mi Calm Calm - N/A   Scattered Clouds
9:15 AM 44.6 °F - 44.6 °F 100% 30.51 in 5.6 mi Calm Calm - N/A   Mostly Cloudy
9:45 AM 44.6 °F - 44.6 °F 100% 30.51 in 5.6 mi NNE 1.2 mph - N/A   Mostly Cloudy
10:00 AM 45 °F - 45 °F 98% 30.54 in 6 mi NNE 1.2 mph - -   Mist
10:15 AM 46.4 °F - 44.6 °F 93% 30.51 in 5.6 mi NNE 2.3 mph - N/A   Mostly Cloudy
10:45 AM 46.4 °F 44.3 °F 46.4 °F 100% 30.51 in 5.6 mi NNE 4.6 mph - N/A   Mostly Cloudy
11:15 AM 48.2 °F - 46.4 °F 93% 30.51 in 4.3 mi NNE 3.5 mph - N/A   Scattered Clouds
11:45 AM 50.0 °F - 48.2 °F 94% 30.48 in 5.0 mi North 2.3 mph - N/A   Scattered Clouds
12:15 PM 51.8 °F - 48.2 °F 88% 30.48 in 5.0 mi North 1.2 mph - N/A   Mostly Cloudy
12:45 PM 53.6 °F - 50.0 °F 88% 30.48 in 5.6 mi NNE 1.2 mph - N/A   Mostly Cloudy
1:00 PM 54 °F - 49 °F 79% 30.49 in 6 mi NNE 1.2 mph - -   Mist
1:15 PM 55.4 °F - 50.0 °F 82% 30.45 in 6.2 mi NE 3.5 mph - N/A   Scattered Clouds
1:45 PM 55.4 °F - 50.0 °F 82% 30.45 in 6.2 mi NNE 2.3 mph - N/A   Scattered Clouds
2:15 PM 55.4 °F - 50.0 °F 82% 30.45 in 6.2 mi NNE 3.5 mph - N/A   Scattered Clouds
2:45 PM 55.4 °F - 50.0 °F 82% 30.42 in 6.2 mi NE 1.2 mph - N/A   Scattered Clouds
3:15 PM 53.6 °F - 50.0 °F 88% 30.42 in 6.2 mi North 1.2 mph - N/A   Scattered Clouds
3:45 PM 51.8 °F - 48.2 °F 88% 30.42 in 6.2 mi North 2.3 mph - N/A   Scattered Clouds
4:00 PM 53 °F - 48 °F 78% 30.45 in 6 mi North 2.3 mph - -   Partly Cloudy
4:15 PM 51.8 °F - 48.2 °F 88% 30.42 in 6.2 mi NNW 1.2 mph - N/A   Scattered Clouds
4:45 PM 50.0 °F - 46.4 °F 87% 30.42 in 6.2 mi Calm Calm - N/A   Scattered Clouds
5:15 PM 50.0 °F - 46.4 °F 87% 30.42 in 6.2 mi Calm Calm - N/A   Scattered Clouds
5:45 PM 50.0 °F - 46.4 °F 87% 30.42 in 6.2 mi Calm Calm - N/A   Scattered Clouds
6:15 PM 48.2 °F - 46.4 °F 93% 30.42 in 6.2 mi Calm Calm - N/A   Scattered Clouds
6:45 PM 48.2 °F - 46.4 °F 93% 30.42 in 5.6 mi Calm Calm - N/A   Scattered Clouds
7:00 PM 48 °F - 46 °F 91% 30.45 in 6 mi Calm Calm - -   Mist
7:15 PM 46.4 °F - 44.6 °F 93% 30.42 in 3.7 mi ENE 1.2 mph - N/A   Scattered Clouds
7:45 PM 46.4 °F 45.2 °F 44.6 °F 93% 30.42 in 3.7 mi East 3.5 mph - N/A   Scattered Clouds
8:15 PM 46.4 °F 44.3 °F 44.6 °F 93% 30.42 in 3.7 mi ENE 4.6 mph - N/A   Scattered Clouds
8:45 PM 46.4 °F 45.2 °F 44.6 °F 93% 30.42 in 4.3 mi ENE 3.5 mph - N/A   Scattered Clouds
9:15 PM 44.6 °F - 41.0 °F 87% 30.42 in 4.3 mi West 2.3 mph - N/A   Partly Cloudy
9:45 PM 44.6 °F - 42.8 °F 93% 30.42 in 4.3 mi West 1.2 mph - N/A   Partly Cloudy
10:00 PM 45 °F - 43 °F 91% 30.44 in 4 mi West 1.2 mph - -   Mist
10:15 PM 41.0 °F - 39.2 °F 93% 30.42 in 3.7 mi Calm Calm - N/A   Partly Cloudy
10:45 PM 41.0 °F - 41.0 °F 100% 30.42 in 3.7 mi ESE 2.3 mph - N/A   Partly Cloudy
11:15 PM 41.0 °F - 41.0 °F 100% 30.42 in 3.7 mi ESE 2.3 mph - N/A   Partly Cloudy
11:45 PM 42.8 °F - 41.0 °F 93% 30.39 in 3.7 mi ENE 1.2 mph - N/A   Partly Cloudy